Location: Barberville
(42.6834°N, 73.5407°W)
Time: 04:24:11
(UTC+00:00)

Daily predictions for brighter satellites

Satellite Brightness Start Highest point End
(mag) Time Altitude Azimuth Time Altitude Azimuth Time Altitude Azimuth
Cosmos 1536 Rocket 4.0 00:01:11 10° N 00:05:22 39° ENE 00:08:22 17° SE
Cosmos 372 Rocket 4.0 00:02:10 10° SSW 00:07:25 89° E 00:12:40 10° NNE
FREGAT/IRIS 4.3 00:08:33 16° NE 00:08:33 16° NE 00:09:30 10° NNE
Cosmos 2263 Rocket 3.8 00:04:06 10° SW 00:09:13 37° WNW 00:14:24 10° N
Cosmos 1464 Rocket 3.9 00:03:41 10° S 00:09:47 77° E 00:15:58 10° N
Cosmos 1844 4.0 00:05:12 10° S 00:10:30 41° ESE 00:15:46 10° NE
Cosmos 1025 Rocket 3.0 00:06:14 10° N 00:10:35 60° E 00:14:52 10° SSE
USA 186 2.0 00:11:48 33° ESE 00:12:42 43° ENE 00:15:48 10° N
BREEZE-M DEB (TANK) 3.4 00:10:05 10° SW 00:13:07 68° SE 00:22:24 10° NE
Cosmos 1844 Rocket 2.7 00:09:50 10° S 00:15:15 56° ESE 00:20:42 10° NNE
Cosmos 1867 3.7 00:10:42 10° NW 00:16:10 75° WSW 00:21:02 13° SSE
Cosmos 1626 4.4 00:17:30 10° NE 00:17:55 11° NE 00:17:55 11° NE
ISS -2.6 00:17:22 10° W 00:20:35 41° NNW 00:22:47 18° NE
Cosmos 2151 Rocket 3.5 00:18:07 10° S 00:22:32 74° E 00:27:02 10° NNE
USA 234 3.7 00:17:11 10° ENE 00:23:11 38° SE 00:29:11 10° SSW
Lacrosse 5 rocket 4.1 00:24:33 10° NW 00:26:40 13° N 00:28:48 10° NNE
Cosmos 2150 Rocket 4.0 00:21:43 10° SSW 00:27:05 83° ESE 00:32:33 10° NNE
MetOp-A 4.2 00:26:18 25° SE 00:29:16 54° ENE 00:34:30 10° N
Cosmos 1125 Rocket 3.5 00:26:12 10° S 00:31:24 61° ESE 00:36:39 10° NNE
MOS 1 4.3 00:27:58 21° SSE 00:31:50 64° ENE 00:37:29 10° N
CZ-2C R/B 2.5 00:29:50 10° WSW 00:32:35 21° S 00:32:43 21° S
DMSP B5D2-2 4.0 00:31:11 10° NNE 00:36:26 61° E 00:41:39 10° S
NOSS 3-2 (C) 4.2 00:30:50 10° NNW 00:38:16 58° NE 00:42:21 31° ESE
Exosat Rocket 3.5 00:33:42 10° S 00:39:25 64° ESE 00:44:21 10° NNE
Cosmos 1833 Rocket 4.3 00:35:52 10° N 00:39:39 18° NE 00:40:10 18° NE
NOSS 3-4 (A) 3.7 00:35:43 10° S 00:41:06 39° ESE 00:42:16 35° E
NOSS 3-4 (C) 3.7 00:35:52 10° S 00:41:12 38° ESE 00:41:56 37° E
Cosmos 1674 2.6 00:50:11 10° N 00:54:01 88° NNW 00:54:01 88° NNW
Meteor 1-15 Rocket 4.2 00:48:41 10° S 00:54:18 87° W 01:00:03 10° N
Cosmos 1805 3.6 00:57:53 55° NNE 00:57:53 55° NNE 01:01:01 10° N
Resurs 01 Rocket 2.6 00:59:15 34° NE 00:59:15 34° NE 01:02:20 10° N
Abrixas rocket 4.2 00:55:42 10° NW 00:57:14 22° NNW 00:57:14 22° NNW
H-2A R/B 3.9 00:54:39 10° SSW 00:58:54 28° W 01:03:15 10° NW
Cosmos 1048 Rocket 4.3 00:55:29 10° NNW 01:00:46 67° WSW 01:03:09 33° S
Nadezhda 4 Rocket 4.3 00:56:07 10° NNW 01:02:10 65° W 01:07:55 11° S
ATLAS 2AS CENTAUR R/B 3.0 00:55:58 10° SSW 01:03:38 57° ESE 01:11:20 10° NE
BREEZE-M TANK 2.8 00:56:14 10° WSW 01:04:37 77° NNW 01:05:15 61° NE
CENTAUR R/B 3.1 01:02:52 10° NW 01:11:04 80° NE 01:14:15 45° SE
ARIANE 5 R/B 4.4 01:17:01 21° NNE 01:17:01 21° NNE 01:18:46 10° N
Cosmos 1269 Rocket 4.2 01:10:34 10° NNW 01:15:25 59° NE 01:15:25 59° NE
Okean 1 Rocket 3.5 01:16:18 50° SW 01:17:13 63° W 01:21:41 10° N
ATLAS 3B R/B 3.4 01:12:56 10° NNW 01:19:13 37° NE 01:20:03 35° ENE
Ariane Rocket 4.1 01:16:43 20° SSW 01:19:44 41° W 01:24:32 10° NNW
OBJECT-B 3.2 01:23:19 21° NNW 01:23:19 21° NNW 01:24:35 10° NNW
Cosmos 2082 Rocket 3.8 01:20:13 10° N 01:23:32 21° NE 01:23:32 21° NE
Cosmos 494 Rocket 4.3 01:21:03 10° NNW 01:26:14 61° WSW 01:26:49 57° SW
USA 238 DEB 4.2 01:19:34 10° NW 01:26:43 61° WSW 01:29:18 41° S
USA 238 4.2 01:19:40 10° NW 01:26:50 62° WSW 01:29:22 41° S
Meteor 2-5 Rocket 3.8 01:21:21 10° NNW 01:27:01 76° W 01:27:52 63° SSW
Resurs 1-3 4.4 01:32:05 50° WNW 01:32:05 50° WNW 01:35:43 10° NNW
Meteor 1-22 Rocket 4.3 01:32:16 69° SSW 01:33:00 84° W 01:39:05 10° N
CZ-2C R/B 4.0 01:28:21 10° N 01:33:28 39° WNW 01:38:36 10° SW
COSMOS 2406 3.7 01:33:42 10° NNW 01:38:13 50° NNE 01:38:13 50° NNE
Cosmos 1634 Rocket 4.2 01:37:16 38° SSW 01:39:41 68° W 01:45:53 10° N
SPOT 3 Rocket 4.1 01:44:55 54° W 01:44:55 54° W 01:49:47 10° NNW
Meteor 1-24 Rocket 3.9 01:39:18 10° NNW 01:44:32 69° WNW 01:44:32 69° WNW
ISS -0.2 01:55:35 10° NW 01:55:46 11° NW 01:55:46 11° NW
Lacrosse 4 Rocket 4.3 01:59:39 10° N 01:59:57 12° N 01:59:57 12° N
USA 234 3.5 02:04:40 49° NNE 02:06:24 66° NW 02:12:52 10° WSW
Lacrosse 5 rocket 4.2 02:04:38 10° NNW 02:06:10 15° N 02:06:10 15° N
Cosmos 1833 Rocket 4.0 02:18:37 10° NNW 02:21:52 36° NNW 02:21:52 36° NNW
Resurs 01 Rocket 4.4 02:36:49 15° WNW 02:36:49 15° WNW 02:38:04 10° NW
ATLAS 2AS CENTAUR R/B 4.0 02:47:28 10° WSW 02:54:56 42° NW 03:02:21 10° NNE
Cosmos 2082 Rocket 4.4 03:03:33 10° NNW 03:05:22 21° NW 03:05:22 21° NW
ATLAS 3B R/B 4.0 03:03:27 10° NW 03:07:18 34° WNW 03:07:18 34° WNW
SL-16 R/B 4.4 06:30:27 22° N 06:30:27 22° N 06:32:27 10° NNW
Resurs 1-4 Rocket 4.5 06:27:50 10° NNE 06:29:09 18° NNE 06:29:09 18° NNE
Cosmos 1697 Rocket 4.1 07:06:50 34° NE 07:06:50 34° NE 07:09:59 10° NNE
Cosmos 1980 Rocket 3.6 07:10:59 32° ENE 07:10:59 32° ENE 07:14:51 10° NE
USA 234 4.4 07:06:25 10° E 07:12:22 39° NNE 07:17:05 16° NW
ADEOS II 3.4 07:25:18 10° NNE 07:28:10 34° N 07:28:10 34° N
ARIANE 5 R/B 3.6 07:28:40 10° NNE 07:32:21 41° NE 07:32:21 41° NE
CZ-3B R/B 4.2 07:37:59 23° NNE 07:37:59 23° NNE 07:41:01 10° NE
IDEFIX/ARIANE 42P 3.4 07:34:25 10° NNE 07:39:15 45° E 07:39:15 45° E
Nadezhda 3 Rocket 4.1 07:41:12 65° N 07:41:12 65° N 07:46:23 10° N
ASTEX 1 4.5 07:35:30 10° NNE 07:39:48 43° ENE 07:39:48 43° ENE
SJ 16-02 3.6 07:47:07 10° N 07:50:44 24° ENE 07:54:19 10° ESE
Cosmos 44 4.2 07:54:54 42° NE 07:54:54 42° NE 07:58:04 10° NE
Cosmos 1238 Rocket 4.3 07:50:21 10° N 07:56:55 63° E 08:00:20 27° SSE
H-2A R/B 4.0 07:56:00 10° SE 07:59:47 29° ENE 08:03:39 10° N
Lacrosse 5 2.8 08:06:13 39° NNW 08:06:13 39° NNW 08:10:22 10° NE
CZ-2D R/B 4.2 08:02:48 10° NNW 08:04:03 14° NNW 08:04:03 14° NNW
Cosmos 2278 3.7 08:08:13 69° NW 08:08:13 69° NW 08:13:37 10° NNE
Resurs 1-4 Rocket 4.3 08:09:17 10° NNW 08:10:13 13° NNW 08:10:13 13° NNW
Cosmos 2369 4.4 08:17:21 41° NW 08:17:21 41° NW 08:22:15 10° NNE
X-37B 3.0 08:18:53 23° ENE 08:18:53 23° ENE 08:20:18 10° E
NOSS 3-3 (A) 3.8 08:19:03 59° SSW 08:20:11 79° ESE 08:26:36 10° NE
NOSS 3-3 (C) 3.8 08:19:13 60° SSW 08:20:19 79° ESE 08:26:40 10° NE
USA 267 3.4 08:14:28 10° NE 08:20:52 59° NNW 08:22:28 47° W
Cosmos 1339 Rocket 4.4 08:29:39 32° S 08:32:50 87° W 08:39:05 10° N
Spot 4 Rocket 3.9 08:29:30 10° N 08:34:35 63° WNW 08:35:06 59° WSW
ATLAS 2AS CENTAUR R/B 4.3 08:29:24 10° NNW 08:36:13 34° NE 08:42:32 10° ESE
Cosmos 972 4.5 08:36:49 55° WNW 08:36:53 55° WNW 08:41:41 10° N
SL-8 R/B 3.6 08:39:54 52° WNW 08:41:04 85° NNE 08:45:51 10° ESE
ADEOS Rocket 4.0 08:36:04 10° SE 08:42:37 52° ENE 08:48:33 10° N
Cosmos 921 Rocket 2.8 08:43:18 68° WNW 08:43:18 68° WNW 08:47:27 10° NNE
Cosmos 2360 Rocket 4.1 08:39:05 10° SSE 08:43:44 27° ESE 08:48:23 10° NE
Cosmos 1898 Rocket 4.2 08:38:58 10° NNW 08:44:08 55° ENE 08:49:19 10° SE
MSX 3.7 08:38:47 10° N 08:44:32 71° WNW 08:47:05 34° SSW
CZ-4C R/B 3.1 08:47:18 63° NNW 08:47:18 63° NNW 08:50:23 10° NNW
Cosmos 1812 2.5 08:46:42 78° SW 08:46:53 81° W 08:50:45 10° N
Cosmos 1500 3.2 08:44:06 10° NNW 08:47:33 64° NW 08:47:33 64° NW
IRIDIUM 104 4.3 08:42:47 10° N 08:48:02 81° E 08:53:14 10° S
Cosmos 1697 Rocket 4.0 08:48:35 22° NW 08:48:51 22° NW 08:53:10 10° N
USA 305 4.4 08:51:58 22° NW 08:52:55 24° NNW 08:56:25 10° NE
Cosmos 1666 3.3 08:49:46 10° N 08:53:32 55° E 08:57:14 10° SSE
Cosmos 1707 Rocket 4.1 08:49:21 10° S 08:53:34 59° E 08:57:51 10° NNE
Cosmos 1980 Rocket 2.9 08:52:47 33° WNW 08:53:41 35° WNW 08:58:52 10° N
USA 234 3.1 08:48:29 10° SE 08:55:01 81° SW 09:01:36 10° NW
IRIDIUM 114 4.2 08:51:56 10° N 08:57:11 83° W 09:02:23 10° S
BREEZE-M DEB (TANK) 3.2 08:55:57 28° SW 09:00:09 71° SSE 09:03:30 10° ENE
Cosmos 2322 Rocket 2.5 08:55:32 14° SSW 09:00:23 69° ESE 09:06:04 10° NNE
Cosmos 2263 Rocket 2.1 08:55:58 10° NNW 09:01:36 69° WSW 09:07:14 10° SSE
BREEZE-M DEB (TANK) 3.1 09:01:04 40° WNW 09:01:48 50° NNW 09:07:57 10° ENE
USA 32 4.2 08:57:40 10° N 09:02:57 75° E 09:08:11 10° S
IRIDIUM 103 4.2 09:01:07 10° N 09:06:18 69° W 09:11:28 10° S
ADEOS II 4.1 09:07:33 10° NW 09:09:07 12° NW 09:09:07 12° NW
SL-16 R/B 2.1 09:05:31 19° SSW 09:09:40 83° WNW 09:15:23 10° NNE
Cosmos 1937 Rocket 3.9 09:04:34 10° NNW 09:09:42 66° ENE 09:14:47 10° SSE
Cosmos 2228 Rocket 3.8 09:09:42 32° W 09:10:00 32° WNW 09:13:58 10° N
SL-4 R/B 2.4 09:08:18 30° SW 09:10:30 72° SE 09:15:16 10° ENE
FALCON 9 DEB 3.1 09:10:01 43° SW 09:10:59 75° SE 09:14:25 10° ENE
Cosmos 1733 Rocket 4.0 09:08:02 10° N 09:12:17 50° ENE 09:16:29 10° SSE
ARIANE 5 R/B 3.8 09:08:40 10° NNW 09:12:20 21° WNW 09:12:41 20° WNW
ADEOS 4.1 09:09:21 10° NNE 09:14:31 60° ESE 09:19:39 10° S
USA 276 4.2 09:13:50 15° NW 09:15:29 22° N 09:18:05 10° ENE
Meteor 1-4 Rocket 2.8 09:16:32 38° WSW 09:17:11 42° WNW 09:20:33 10° N
Cosmos 841 Rocket 4.0 09:12:14 10° S 09:17:21 61° ESE 09:22:32 10° NNE
Cosmos 44 Rocket 4.0 09:13:18 10° SSW 09:17:50 50° ESE 09:22:30 10° NE
Cosmos 2173 Rocket 4.3 09:11:35 10° N 09:17:56 72° E 09:24:17 10° SSE
Gbstr 26 Del rocket 4.4 09:09:50 10° WNW 09:17:57 87° SW 09:25:03 10° SE
IDEFIX/ARIANE 42P 3.7 09:14:36 10° NNW 09:18:47 24° WNW 09:20:03 22° W
CZ-2C R/B 2.5 09:13:53 10° N 09:18:59 69° WNW 09:24:08 10° SSW
Cosmos 1869 Rocket 3.9 09:15:18 10° NNW 09:19:22 40° W 09:23:23 10° SSW
Cosmos 2227 4.4 09:15:20 10° NW 09:20:40 44° WSW 09:25:57 10° S
CZ-2C R/B 4.0 09:18:37 10° NNW 09:21:40 23° WNW 09:21:45 23° WNW
Meteor 1-10 Rocket 4.5 09:17:09 15° SSW 09:21:48 50° WNW 09:27:30 10° N
ERBS 3.4 09:22:46 26° WNW 09:23:40 30° NW 09:26:41 10° NNE
Cosmos 1763 Rocket 3.6 09:21:34 15° SW 09:25:53 60° WNW 09:31:09 10° NNE
Cosmos 1862 Rocket 3.9 09:23:24 10° S 09:27:45 67° E 09:32:05 10° NNE
SJ-6F 4.4 09:24:28 10° NNE 09:28:35 89° W 09:32:39 10° SSW
SJ 16-02 2.0 09:25:25 10° NW 09:29:20 32° W 09:33:14 10° SSW
Intercosmos 25 4.4 09:26:29 10° SSE 09:30:38 45° E 09:33:50 10° NNE
PSLV R/B 3.9 09:27:28 10° N 09:31:26 41° WNW 09:34:43 14° SW
Cosmos 1743 4.0 09:29:07 10° N 09:32:46 43° ENE 09:36:24 10° SSE
Cosmos 967 Rocket 4.5 09:27:03 10° SW 09:33:25 79° WNW 09:39:53 10° NNE
CZ-4B R/B 1.1 09:31:54 10° S 09:35:01 78° WSW 09:38:16 10° NNW
H-2A R/B 3.0 09:32:01 10° SSW 09:35:42 27° W 09:39:30 10° NW
DEBRIS 3.1 09:34:58 22° W 09:36:32 48° SSW 09:42:32 10° SE
Cosmos 2061 Rocket 4.5 09:31:44 10° N 09:38:10 68° E 09:44:33 10° SSE
Cosmos 1570 Rocket 4.0 09:34:19 10° SSW 09:39:38 88° WNW 09:45:01 10° NNE
PKM 3.9 09:37:19 10° NW 09:40:58 80° NE 09:45:05 10° SE
Cosmos 1689 Rocket 3.2 09:41:48 10° SSE 09:44:39 48° ENE 09:47:32 10° N
ERS-2 3.0 09:45:31 10° SSW 09:48:40 27° W 09:51:49 10° NW
Cosmos 2016 Rocket 4.1 09:42:31 10° N 09:48:41 82° E 09:54:46 10° S
Lacrosse 5 3.8 09:46:17 10° NW 09:49:42 18° NNW 09:53:07 10° NNE
Cosmos 2333 Rocket 3.8 09:45:01 10° S 09:50:15 37° ESE 09:55:31 10° NE
Cosmos 1000 Rocket 4.5 09:45:03 10° SSW 09:51:12 66° W 09:57:20 10° N
Okean 1 3.8 09:48:06 10° S 09:52:06 65° E 09:56:08 10° NNE
Cosmos 540 Rocket 3.5 09:47:27 10° SSW 09:52:35 67° WNW 09:57:45 10° NNE
CZ-4B R/B 3.6 09:49:16 10° NNE 09:52:51 51° E 09:56:20 10° S
Meteor 2-20 4.4 09:46:57 10° S 09:53:05 81° W 09:59:14 10° N
X-37B 0.6 09:51:10 13° WNW 09:53:52 64° SSW 09:57:01 10° ESE
CZ-4B R/B 4.1 09:50:18 10° N 09:54:40 82° WNW 09:59:07 10° SSW
Cosmos 2322 4.5 09:53:07 10° S 09:58:38 57° ESE 10:04:10 10° NNE
ALOS 2.2 09:54:13 10° N 09:58:52 68° WNW 10:03:29 10° SSW
Cosmos 1484 Rocket 2.9 09:55:07 10° N 09:59:02 57° WNW 10:02:57 10° SSW
COSMO-SKYMED 1 2.9 09:58:11 10° SSE 10:02:29 74° ENE 10:06:50 10° N
USA 267 4.5 09:57:39 10° NE 10:03:05 29° NNW 10:08:32 10° WNW
NOSS 3-4 (A) 3.9 09:56:41 10° NW 10:03:48 77° WSW 10:11:39 10° SSE
NOSS 3-4 (C) 3.9 09:56:47 10° NW 10:03:54 78° WSW 10:11:45 10° SSE
Cosmos 1536 3.8 10:03:04 10° NNW 10:06:31 27° W 10:09:57 10° SSW
Cosmos 1725 Rocket 4.0 10:02:18 10° N 10:08:31 85° W 10:14:42 10° S
Meteor 1-31 Rocket 2.9 10:06:52 10° N 10:10:35 50° WNW 10:14:18 10° SSW
Cosmos 1437 Rocket 2.7 10:10:19 10° SSW 10:14:02 57° WNW 10:17:49 10° N
Cosmos 2100 Rocket 4.5 10:08:58 10° NNW 10:14:50 40° W 10:20:40 10° SSW
Cosmos 1544 3.0 10:11:57 10° N 10:15:34 80° W 10:19:08 10° S
Cosmos 2333 4.5 10:10:40 10° SSW 10:16:26 81° ESE 10:22:15 10° NNE
USA 281 4.5 10:12:06 10° NE 10:18:25 47° ESE 10:24:40 10° S
